Погода в Брагине

Погода в Брагине : погода сейчас, прогноз погоды и архив. Всё, что Вы хотите узнать о погоде в Брагине!

Поиск расширенной информации на нашем сайте:

Другие новости

Новости СМИ2

Главная страница сайта

Новости сайта

03.07.2017

Напоминаем, что на нашем специализированном сайте Метеоцентр.Азия вы можете получить высокодетализированные автоматические прогнозы погоды по пунктам России, СНГ и мира в авиационном формате (включающие направление и скорость ветра, видимость, явления погоды, количество и форму облачности, нижнюю и верхнюю границу облачности).


Погода в Брагине - сегодня

Время (UTC), дата Ветер
(°,м/с) 
Видим.   Явления Облачность Т
(°С)
Тd
(°С)
f(%) Тe
(°С)
Pmin
(гПа)
dP
(гПа)
Po
(мм)
O2
(г/м3)
Тmin Tmax R s Состояние
почвы
18 14.05.18 170 (Ю) 6000 м  слаб. ливневой дождь, в посл. час гроза  10/10 540 м кучево-дожд. 
[Cb cap]
+12.5 +11.8 95 +18  1019.1  0.4  754  288    +17.6     
06 15.05.18 170 (Ю) 29000 м    9/9 2000 м средняя 
[Ac und]
+13 +10.8 86 +15  1020.6  0.8  755  288  +8.3       
09 15.05.18 150 (ЮВ) 55000 м    6/6 960 м 
[Cu med, cong]
+18.2 +9.9 58 +20  1019.9  -0.4  755  283           
12 15.05.18 160 (Ю) 60000 м    8/8 1000 м 
[Cu med, cong]
+20.9 +8.2 44 +21  1019  -0.7  754  281           
15 15.05.18 160 (Ю) 50000 м    9/6 960 м средняя 
[Cu med, cong|Ac trans]
+20.7 +9.3 48 +21  1017.8  -1.2  753  281           
18 15.05.18 тихо ()   35000 м    8/8 2000 м средняя 
[Ac trans]
+17.8 +12 69 +22  1017.6  -0.4  753  283    +22.1       
06 16.05.18 150 (ЮВ) 30000 м    8/0 верхняя 
[Ci]
+18.3 +11.3 64 +22  1015.8  752  282  +14.4         
09 16.05.18 150 (ЮВ) 60000 м    9/0 верхняя 
[Ci]
+23 +10.5 45 +25  1014.9  -0.7  751  277           
12 16.05.18 160 (Ю) 7{11}  40000 м    9/0 верхняя 
[Cs]
+24 +10.5 43 +26  1013.6  -1.2  750  276           
15 16.05.18 140 (ЮВ) 45000 м    10/10 2000 м 
[Ac und]
+24 +9.9 41 +25  1011.9  -1.7  749  276           
18 16.05.18 130 (ЮВ) 40000 м    9/8 2000 м средняя, верхняя 
[Ac und|Ci fib]
+20.3 +10.2 52 +22  1011  -1.1  748  279    +25.6       
09 17.05.18 210 (ЮЗ) 45000 м    6/6 1020 м 
[Cu med, cong]
+20.6 +9.4 49 +21  1012.4  0.5  749  279           
12 17.05.18 210 (ЮЗ) 55000 м    8/8 1050 м 
[Cu med, cong]
+21.1 +9.6 48 +22  1012.2  -0.1  749  279           
15 17.05.18 220 (ЮЗ) н/о    9/6 1020 м верхняя 
[Cu med, cong|Ci fib]
+22 +8.7 43 +22  1011.4  -0.8  749  278           
18 17.05.18 тихо ()   65000 м    4/4 600 м 
[Sc]
+18.8 +10 57 +20  1010.9  -0.6  748  280    +23       
06 18.05.18 тихо ()   45000 м    3/0 верхняя 
[Ci fib]
+19.4 +11.1 59 +22  1008.3  -0.4  746  279  +8.2         
09 18.05.18 210 (ЮЗ) н/о    8/8 1020 м 
[Cu Sc]
+23.6 +8.6 38 +24  1007.3  -0.7  746  275           
12 18.05.18 210 (ЮЗ) 65000 м  гроза без осадков  8/8 540 м кучево-дожд. 
[Cb cap]
+23.5 +11.4 47 +27  1005.8  -1.5  744  274           
18 18.05.18 260 (З) 55000 м  {гроза, ливн. осадки}  6/6 800 м 
[Sc]
+15 +10.5 74 +18  1007.5  1.1  745  283    +24.4  0.6     
06 19.05.18 270 (З) 26000 м    9/9 2000 м средняя 
[Ac und]
+15.3 +12.9 86 +22  1009.3  0.9  747  282  +9.7         
09 19.05.18 260 (З) 45000 м    8/4 600 м средняя 
[Cu med, cong|Ac trans]
+21 +13.3 61 +27  1010.1  1.1  748  277           
12 19.05.18 290 (З) 45000 м    8/6 960 м средняя 
[Cu med, cong|Ac trans]
+23.2 +9.8 43 +24  1009.9  -0.1  747  276           
18 19.05.18 300 (СЗ) 45000 м  {ливн. осадки}  8/8 840 м 
[Sc]
+16.3 +11.8 75 +22  1013.4  1.4  750  283    +24.1  0.6     
06 20.05.18 350 (С) 40000 м    3/3 1000 м 
[Cu hum]
+14.5 +8 65 +15  1019.7  2.1  754  287  +13         
09 20.05.18 010 (С) 6{10}  н/о    3/3 1000 м 
[Cu hum]
+16.6 +1.3 36 +16  1020.3  0.7  755  287           
Время (UTC), дата Ветер
(°,м/с) 
Видим.   Явления Облачность Т
(°С)
Тd
(°С)
f(%) Тe
(°С)
Pmin
(гПа)
dP
(гПа)
Po
(мм)
O2
(г/м3)
Тmin Tmax R s Состояние
почвы

Для получения пояснительной информации подведите курсор к названию столбца.

ПОГОДА в Брагине - архив

Всё, что Вы хотите узнать о погоде в Брагине - удобно и подробно!

Выберите нужную дату (начиная с 1 января 2015* года) и нажмите кнопку "Найти".
Будут отображены архивные сводки погоды по пункту Брагин, начиная с указанной даты.


Отображать данные в формате CSV (для использования в таблицах Excel)


Внимание! Наш архив погоды предназначен исключительно для личного некоммерческого использования в познавательных целях. Если Вам необходимы официальные справки о состоянии погоды (для производственных, юридических, коммерческих и т.п. целей), обращайтесь в органы Росгидромета.

*Примечание: данная дата относится к архиву по метеостанциям СССР (Россия, СНГ, Балтия).
Архив по метеостанциям Зарубежной Европы и Азии (кроме Китая) хранится 10 дней, по другим регионам земного шара (Китай, Африка, Америка, Австралия, Океания) - 1 день.

Брагин - район местоположения метеостанции


Название, широта, долгота, высота метеостанции:
Брагин 51.8°ш. 30.3°д. 116 м над ур. моря [Беларусь]

Дополнительная информация

В oтличие oт бoльшинства пoгoдных сайтoв мы публикуем пoдрoбную метеoинфoрмацию в детальнoм прoфессиoнальнoм фoрмате.

Характеристики температуры и влажнoсти вoздуха измеряются на высoте 2 м в тени вдали oт зданий и деревьев.
Скoрoсть ветра измеряется на высoте 10 м (на урoвне рoста челoвека скoрoсть ветра ниже в 1.5-2 раза). Если метеoстанция нахoдится в гoрoде или в лесу, тo скoрoсть ветра занижена на 2-4 м/с пo сравнению с oткрытым местoм. Скoрoсть ветра над акватoриями крупных рек и oзёр, а также на вершинах хoлмoв на 2-5 м/с выше, чем в oбычных услoвиях.
Атмoсфернoе давление в разных тoчках местнoсти мoжет значительнo oтличаться oт давления на метеoстанции, в зависимoсти oт услoвий рельефа (при пoдъёме на 10 м давление пoнижается примернo на 1 мм рт.ст.).